Location: Unspecified
(0.0000°N, 0.0000°E)
Time: 11:15:31
(UTC+00:00)

Courier 1B Rocket - Pass Details

Date: 20 November 2019
Orbit: 920 x 1202 km, 28.2° (Epoch: 13 December)

Event Time Altitude Azimuth Distance (km) Brightness Sun altitude
Rises 11:26:44 0° 254° (WSW) 3,564 8.0 69.8°
Reaches altitude 10° 11:29:26 10° 261° (W) 2,638 7.4 69.9°
Maximum altitude 11:35:24 43° 331° (NNW) 1,330 6.2 70.2°
Drops below altitude 10° 11:41:43 10° 41° (NE) 2,782 7.4 70.3°
Sets 11:44:38 0° 48° (NE) 3,778 7.9 70.3°
